Regional Weather Roundup
Issued by NWS Kansas City/Pleasant Hill, MO

Home | Current Version | Previous Version | Graphics & Text | Print | Product List | Glossary Off
Versions: 1 2 3 4 5 6 7 8 9 10 11 12 13 14 15 16 17 18 19 20 21 22 23 24 25 26 27 28 29 30 31 32 33 34 35 36 37 38 39 40 41 42 43 44 45 46 47 48 49 50

000
ASUS43 KEAX 270510
RWREAX

WEATHER ROUNDUP FOR EASTERN KANSAS AND NORTHWEST MISSOURI
NATIONAL WEATHER SERVICE KANSAS CITY/PLEASANT HILL MO
1100 PM CST WED NOV 26 2014

KSZ040-057-103>105-MOZ028-029-037-043-270600-
...KANSAS CITY METROPOLITAN AREA...

CITY           SKY/WX    TMP DP  RH WIND       PRES   REMARKS
K.C. INTL      CLOUDY    27  21  78 N14       30.39R WCI  16
K.C. DOWNTOWN  CLOUDY    30  22  72 NW14G24   30.39R WCI  19
LEES SUMMIT    CLOUDY    29  22  75 NW15G22   30.37R WCI  18
OLATHE - IXD   CLOUDY    29  22  75 NW13G23   30.39R WCI  19
OLATHE - OJC   CLOUDY    29  22  75 N14G24    30.38R WCI  18
LAWRENCE       CLOUDY    29  21  72 NW14      30.42R WCI  18

$$

MOZ001>008-011>017-020>025-030>033-038>040-044>046-053-054-270600-
...NORTHERN AND CENTRAL MISSOURI...

CITY           SKY/WX    TMP DP  RH WIND       PRES   REMARKS
ST. JOSEPH     CLOUDY    27  21  78 N17       30.41R WCI  14
MOSBY          CLOUDY    30  23  74 NW13G22   30.39R WCI  20
WARRENSBURG    CLOUDY    32  25  74 NW15G21   30.35R WCI  22
WHITEMAN AFB   CLOUDY    31  25  79 NW15G28   30.32R WCI  20
CLINTON        CLOUDY    34  27  75 NW14G20   30.35R WCI  24
SEDALIA        CLOUDY    32  27  81 NW15G26   30.31R WCI  22
WARSAW         NOT AVBL
MARSHALL       CLOUDY    34  32  93 NW14G22   30.30  WCI  24
CHILLICOTHE      N/A     31  26  82 NW8       30.35R WCI  23
MOBERLY        CLOUDY    32  28  86 N14G21    30.27R WCI  22
KIRKSVILLE     CLOUDY    29  26  89 N10       30.29R FOG     WCI  20

$$

MOZ041-047>049-056>058-063>065-088>090-097-270600-
...EASTERN AND SOUTHERN MISSOURI...

CITY           SKY/WX    TMP DP  RH WIND       PRES   REMARKS
ST. LOUIS INTL LGT SNOW  34  32  92 N8        30.17R FOG     WCI  27
SPIRIT OF STL  CLOUDY    34  32  92 NW9       30.17R WCI  27
COLUMBIA       CLOUDY    33  30  88 NW13      30.25R WCI  24
JEFFERSON CITY CLOUDY    34  29  82 NW13G22   30.26R WCI  25
MEXICO         CLOUDY   N/A N/A N/A N18       30.24R
ROLLA          CLOUDY    31  28  89 NW21G26   30.20R WCI  18
LEBANON        CLOUDY    32  27  80 W21G29    30.28R WCI  20
OSAGE BEACH    CLOUDY    34  25  69 NW8       30.28R WCI  27
SPRINGFIELD    CLOUDY    33  24  69 NW18G29   30.29R WCI  22
BRANSON        CLOUDY    34  25  69 NW17G28   30.29R WCI  23
NEVADA         CLOUDY    30  23  74 NW14G20   30.40R WCI  20
JOPLIN         CLOUDY    33  24  69 N15       30.38R WCI  23
WEST PLAINS    CLOUDY    35  26  69 NW22G31   30.20R WCI  23

$$

IAZ060-094-KSZ022-034>040-054-083-096-NEZ052-066-093-270600-
...KANSAS...SOUTHEAST NEBRASKA AND IOWA...

CITY           SKY/WX    TMP DP  RH WIND       PRES   REMARKS
TOPEKA         CLOUDY    29  20  69 N10       30.45R WCI  20
MANHATTAN      CLEAR     23  18  81 W3        30.47R
EMPORIA        CLEAR     26  20  77 NW12      30.44R WCI  16
CHANUTE        CLEAR     28  22  78 N10       30.41R WCI  19
WICHITA        PTCLDY    32  21  64 N12       30.44R WCI  23
OMAHA          CLOUDY    23  17  78 N16       30.45R WCI  10
LINCOLN        PTCLDY    19  14  81 N7        30.46R WCI  10
FALLS CITY     CLOUDY    25  19  78 N13       30.43R WCI  14
LAMONI         LGT SNOW  24  20  84 N13       30.35R FOG     WCI  12
DES MOINES     FLURRIES  23  18  81 NW16      30.37R WCI  10

$$



USA.gov is the U.S. government's official web portal to all federal, state and local government web resources and services.